User: anonymous   Login
Location: Norwich
(52.6280°N, 1.3030°E)
Time: 00:40:42
(UTC+01:00)
Language:

Meteor 1-22 Rocket - Orbit

View from above orbital plane
View from above orbital plane
View from above satellite
View from above satellite

Ground track
Ground track

The orbit data is extracted from the following two-line orbital elements,

1 08294U 75087B   16211.51429888 -.00000035  00000-0 -26091-4 0  9998
2 08294  81.2209 337.0282 0106308 231.7291 127.4280 14.08595258 99419
Epoch (UTC): 29 July 2016 12:20:35
Eccentricity: 0.0106308
inclination: 81.2209°
perigee height: 787 km
apogee height: 941 km
right ascension of ascending node: 337.0282°
argument of perigee: 231.7291°
revolutions per day: 14.08595258
mean anomaly at epoch: 127.4280°
orbit number at epoch: 9941

The dashed part of the orbit path shows where the satellite is in the earth's shadow,  

DLR